Location: Kumla
(59.1265°N, 15.1401°E)
Time: 22:42:49
(UTC+01:00)

Vanguard 1 - Pass Details

Date: 08 December 2023
Orbit: 653 x 3825 km, 34.3° (Epoch: 04 March)

Event Time Altitude Azimuth Distance (km) Brightness Sun altitude
Rises 16:36:28 0° 204° (SSW) 5,459 14.8 -10.4°
Reaches altitude 10° 16:40:48 10° 190° (S) 4,942 14.2 -10.9°
Maximum altitude 16:51:06 22° 146° (SSE) 4,930 13.5 -12.1°
Drops below altitude 10° 17:04:45 10° 106° (ESE) 6,715 13.8 -13.7°
Enters shadow 17:08:53 - 99° (E) 7,393 14.0 -14.2°
